Retour au catalogue

STARLINK-4364

ActifCommunicationsSSO
NORAD 53230·PAYLOAD·🇺🇸 United States

Lancé Jul 22, 2022 depuis Vandenberg Space Force Base

Loading…

Prochains Passages (prochaines 24 heures)

TLE

FraisSource: CelesTrak SupGP

Époque: Sep 14, 2026, 21:51 UTC

1 53230C 22084AT  26257.91090278 -.00016280  00000+0 -50542-3 0  2571
2 53230  97.2840 313.7003 0001324  86.8188  34.4482 15.33444679    13

Suivez STARLINK-4364 en temps réel avec AllMySat

Download on the App Store